Regional Weather Roundup
Issued by NWS Portland, ME

Home | Current Version | Previous Version | Text Only | Print | Product List | Glossary On
Versions: 1 2 3 4 5 6 7 8 9 10 11 12 13 14 15 16 17 18 19 20 21 22 23 24 25 26 27 28 29 30 31 32 33 34 35 36 37 38 39 40 41 42 43 44 45 46 47 48 49 50
000
ASUS41 KGYX 171405
RWRGYX
WEATHER ROUNDUP FOR MAINE AND NEW HAMPSHIRE
NATIONAL WEATHER SERVICE GRAY ME
1000 AM EDT TUE OCT 17 2017

MEZ002-005-006-010-012-015-018-020-021-024-026-027-029-171500-
MAINE

CITY           SKY/WX    TMP DP  RH WIND       PRES   REMARKS
PORTLAND       MOSUNNY   48  29  47 NW9       30.27F
SANFORD        SUNNY     46  30  53 VRB6      30.28S
BAR HARBOR     SUNNY     45  27  49 VRB5      30.23F
WISCASSET      SUNNY     47  32  56 CALM      30.27F
ROCKLAND       SUNNY     45  28  51 W9        30.25S
FRYEBURG       SUNNY     44  32  62 CALM      30.27S
LEWISTONAUBURN SUNNY     44  28  53 NW8       30.26F
AUGUSTA        SUNNY     45  30  55 NW8       30.25F
WATERVILLE     SUNNY     44  31  60 W6        30.22F
BANGOR         SUNNY     44  29  55 W7        30.23F
GREENVILLE       N/A     38  27  64 NW8       30.16S
MILLINOCKET    SUNNY     40  32  73 NW8G18    30.21S
HOULTON        SUNNY     43  30  60 N5        30.16F
PRESQUE ISLE   SUNNY     40  26  57 NW8       30.17F
FRENCHVILLE    SUNNY     37  27  67 VRB5      30.12F
CARIBOU        SUNNY     42  25  50 NW6       30.14F
$$

NHZ002-005-008-009-011-012-014-171500-
NEW HAMPSHIRE

CITY           SKY/WX    TMP DP  RH WIND       PRES   REMARKS
ROCHESTER      SUNNY     45  32  60 NW7       30.28S
NASHUA         SUNNY     46  29  51 NW9       30.30F
MANCHESTER     SUNNY     45  29  53 NW8       30.28F
CONCORD        SUNNY     45  31  58 N7        30.29F
LACONIA        SUNNY     44  26  49 W6        30.28S
PLYMOUTH       FAIR      44  29  56 NW7       30.28S
BERLIN         SUNNY     41  28  60 VRB5      30.25F
WHITEFIELD     SUNNY     41  28  60 W5        30.27F
JAFFREY        SUNNY     44  30  57 VRB5      30.28F
KEENE          SUNNY     44  39  82 CALM      30.32F
LEBANON        SUNNY     41  32  70 CALM      30.30F
MT WASHINGTON  MOSUNNY   23   3  42 NW32        N/A  WCI   5
$$

VTZ005-007-008-171500-
VERMONT

CITY           SKY/WX    TMP DP  RH WIND       PRES   REMARKS
ST JOHNSBURY     N/A     40  34  79 MISG      30.28R
MONTPELIER     SUNNY     40  32  73 CALM      30.30S
BURLINGTON     SUNNY     43  32  65 S7        30.30S
$$

MAZ007-012-024-CTZ003-RIZ002-NYZ038-NYZ072-171500-
SOUTHERN NEW ENGLAND AND NY

CITY           SKY/WX    TMP DP  RH WIND       PRES   REMARKS
BOSTON         MOSUNNY   48  32  53 VRB5      30.30S
WORCESTER      SUNNY     43  24  47 N10       30.29R
NANTUCKET      SUNNY     52  35  52 N22G30    30.25S
PROVIDENCE     MOSUNNY   49  33  54 N10       30.31S
HARTFORD       SUNNY     46  30  53 N9        30.33S
ALBANY         SUNNY     43  31  62 CALM      30.34F
NEW YORK CITY  MOSUNNY   49  31  49 N10       30.35S
$$

ANZ081-ANZ082-ANZ150-NHZ014-MEZ023>029-171500-
COASTAL MARINE OBSERVATIONS

STATION/POSITION TIME  TEMP    WIND        PRES    WAVE
                       AIR SEA DIR/SP/G            HT/PER
                 (UTC) (F)     (DEG/KT/KT) (MB)    (FT/S)
MOUNT DESERT ROC 1400   44     300/ 12/ 13 1023.8R
MATINICUS ROCK   1300   44     340/ 12/ 14 1023.8R
ISLE OF SHOALS   1300   44     330/ 12/ 13 1025.3R
JEFFREYS LEDGE   1336      59                N/A     4/ 5
CASHES LEDGE BUO 1250   49 54              1024.0    4/ 6
GEORGES BANK BUO 1250   54 60              1018.7    7/ 7
$$

.............KEY..............
   WCI - WIND CHILL
   TC  - TEMPERATURE IN CELSIUS
   VSB - VISIBILITY IN MILES
   HX  - HEAT INDEX
   FAIR- INDICATES FEW OR NO CLOUDS BELOW 12,000 FT, WITH NO
         SIGNIFICANT WEATHER AND/OR OBSTRUCTIONS TO VISIBILITY.






USA.gov is the U.S. government's official web portal to all federal, state and local government web resources and services.